BRS03 GVAC-LPPT

Flight info

Callsign BRS03
Flight time 3h 24m
Altitude 37000
Route DIMKI1A DIMKI DCT IPERA N873 LIMAL DCT UDATI DCT ODEGI DCT LOMAS DCT GDV DCT VASTO DCT BAROK DCT VATZI
Aircraft E190/M-SDE3GILORVW/S

Departure

Time 2026-04-23 14:14
Airport Amílcar Cabral International Airport (GVAC)

Arrival

Time 2026-04-23 17:39
Airport Lisbon Humberto Delgado Airport (LPPT)
Time Latitude Longitude Altitude Speed Heading
2026-04-23 14:06 16.73236 -22.94507 182 ft 0 kts 90°
2026-04-23 14:08 16.73236 -22.94521 182 ft 2 kts 91°
2026-04-23 14:08 16.73236 -22.94539 182 ft 2 kts 92°
2026-04-23 14:08 16.73237 -22.94556 182 ft 2 kts 95°
2026-04-23 14:08 16.73239 -22.94573 182 ft 2 kts 103°
2026-04-23 14:09 16.73245 -22.94589 182 ft 2 kts 141°
2026-04-23 14:09 16.73258 -22.94595 182 ft 1 kts 179°
2026-04-23 14:09 16.73260 -22.94595 182 ft 0 kts 179°
2026-04-23 14:10 16.73253 -22.94594 182 ft 4 kts 176°
2026-04-23 14:11 16.73188 -22.94594 182 ft 14 kts 183°
2026-04-23 14:11 16.73079 -22.94628 181 ft 21 kts 234°
2026-04-23 14:11 16.72954 -22.94690 180 ft 23 kts 180°
2026-04-23 14:11 16.72772 -22.94689 180 ft 29 kts 179°
2026-04-23 14:12 16.72543 -22.94686 179 ft 36 kts 180°
2026-04-23 14:12 16.72406 -22.94731 177 ft 16 kts 256°
2026-04-23 14:12 16.72403 -22.94763 175 ft 0 kts 265°
2026-04-23 14:12 16.72403 -22.94764 175 ft 1 kts 265°
2026-04-23 14:13 16.72396 -22.94815 168 ft 15 kts 262°
2026-04-23 14:13 16.72460 -22.94889 166 ft 17 kts 359°
2026-04-23 14:13 16.72483 -22.94889 166 ft 1 kts
2026-04-23 14:13 16.72731 -22.94895 165 ft 72 kts 356°
2026-04-23 14:14 16.73471 -22.94907 168 ft 138 kts
2026-04-23 14:14 16.74607 -22.94945 385 ft 184 kts
2026-04-23 14:14 16.76042 -22.94955 752 ft 228 kts
2026-04-23 14:14 16.77689 -22.94893 1763 ft 232 kts
2026-04-23 14:15 16.79214 -22.94867 3534 ft 213 kts
2026-04-23 14:15 16.80766 -22.94857 4395 ft 231 kts 359°
2026-04-23 14:15 16.82416 -22.94852 5298 ft 240 kts 357°
2026-04-23 14:15 16.84112 -22.94860 6236 ft 248 kts 356°
2026-04-23 14:16 16.85855 -22.94871 7159 ft 253 kts 356°
2026-04-23 14:16 16.87627 -22.94884 8046 ft 257 kts 356°
2026-04-23 14:16 16.89436 -22.94899 8935 ft 261 kts 356°
2026-04-23 14:16 16.91277 -22.94878 9781 ft 270 kts
2026-04-23 14:17 16.93081 -22.94261 10585 ft 278 kts 27°
2026-04-23 14:17 16.94697 -22.93166 11384 ft 281 kts 34°
2026-04-23 14:17 16.96285 -22.91962 12182 ft 283 kts 34°
2026-04-23 14:17 16.97889 -22.90758 12965 ft 285 kts 33°
2026-04-23 14:18 16.99516 -22.89563 13697 ft 288 kts 33°
2026-04-23 14:18 17.01188 -22.88352 14398 ft 297 kts 32°
2026-04-23 14:18 17.03008 -22.87048 14389 ft 337 kts 32°
2026-04-23 14:18 17.05034 -22.85602 14673 ft 360 kts 33°
2026-04-23 14:19 17.07107 -22.84102 15615 ft 364 kts 32°
2026-04-23 14:19 17.09202 -22.82587 16507 ft 368 kts 32°
2026-04-23 14:19 17.11294 -22.81076 17362 ft 373 kts 32°
2026-04-23 14:19 17.13441 -22.79527 18213 ft 377 kts 32°
2026-04-23 14:20 17.15615 -22.77957 18926 ft 382 kts 32°
2026-04-23 14:20 17.17816 -22.76367 19593 ft 387 kts 31°
2026-04-23 14:20 17.20048 -22.74754 20241 ft 392 kts 31°
2026-04-23 14:20 17.22308 -22.73119 20879 ft 398 kts 31°
2026-04-23 14:21 17.24598 -22.71462 21531 ft 402 kts 31°
2026-04-23 14:21 17.26916 -22.69785 22154 ft 406 kts 31°
2026-04-23 14:21 17.29255 -22.68092 22754 ft 411 kts 30°
2026-04-23 14:21 17.31619 -22.66380 23362 ft 415 kts 30°
2026-04-23 14:22 17.34009 -22.64649 23886 ft 420 kts 30°
2026-04-23 14:22 17.36415 -22.62904 24407 ft 422 kts 30°
2026-04-23 14:22 17.38836 -22.61149 24894 ft 425 kts 30°
2026-04-23 14:22 17.41252 -22.59398 25374 ft 428 kts 30°
2026-04-23 14:23 17.43709 -22.57616 25826 ft 432 kts 30°
2026-04-23 14:23 17.46180 -22.55822 26297 ft 434 kts 29°
2026-04-23 14:23 17.48679 -22.54009 26741 ft 438 kts 29°
2026-04-23 14:23 17.51189 -22.52186 27182 ft 440 kts 29°
2026-04-23 14:24 17.53721 -22.50347 27609 ft 444 kts 29°
2026-04-23 14:24 17.56266 -22.48497 28027 ft 446 kts 29°
2026-04-23 14:24 17.58827 -22.46636 28428 ft 449 kts 28°
2026-04-23 14:24 17.61409 -22.44758 28830 ft 452 kts 28°
2026-04-23 14:25 17.63999 -22.42874 29220 ft 455 kts 28°
2026-04-23 14:25 17.66611 -22.40973 29598 ft 458 kts 28°
2026-04-23 14:25 17.69230 -22.39067 29962 ft 460 kts 28°
2026-04-23 14:25 17.71875 -22.37140 30286 ft 463 kts 28°
2026-04-23 14:26 17.74520 -22.35213 30605 ft 465 kts 28°
2026-04-23 14:26 17.77187 -22.33270 30902 ft 467 kts 28°
2026-04-23 14:26 17.79865 -22.31317 31190 ft 469 kts 28°
2026-04-23 14:26 17.82554 -22.29356 31459 ft 472 kts 28°
2026-04-23 14:27 17.85219 -22.27410 31742 ft 474 kts 28°
2026-04-23 14:27 17.87930 -22.25431 32023 ft 476 kts 28°
2026-04-23 14:27 17.90703 -22.23540 32245 ft 475 kts 24°
2026-04-23 14:27 17.93547 -22.21783 32623 ft 471 kts 22°
2026-04-23 14:28 17.96392 -22.20073 32969 ft 471 kts 22°
2026-04-23 14:28 17.99236 -22.18354 33266 ft 472 kts 22°
2026-04-23 14:28 18.02073 -22.16623 33627 ft 471 kts 22°
2026-04-23 14:28 18.04903 -22.14887 33932 ft 471 kts 22°
2026-04-23 14:29 18.07734 -22.13146 34211 ft 471 kts 22°
2026-04-23 14:29 18.10574 -22.11400 34435 ft 472 kts 23°
2026-04-23 14:29 18.13411 -22.09653 34682 ft 472 kts 23°
2026-04-23 14:29 18.16249 -22.07905 34896 ft 473 kts 23°
2026-04-23 14:30 18.19086 -22.06155 35142 ft 473 kts 23°
2026-04-23 14:30 18.21927 -22.04401 35353 ft 474 kts 23°
2026-04-23 14:30 18.24733 -22.02669 35578 ft 474 kts 23°
2026-04-23 14:30 18.27582 -22.00910 35795 ft 474 kts 24°
2026-04-23 14:31 18.30431 -21.99149 35983 ft 476 kts 24°
2026-04-23 14:31 18.33292 -21.97381 36192 ft 476 kts 24°
2026-04-23 14:31 18.36148 -21.95615 36398 ft 476 kts 24°
2026-04-23 14:31 18.39005 -21.93847 36603 ft 477 kts 24°
2026-04-23 14:32 18.41873 -21.92073 36785 ft 477 kts 24°
2026-04-23 14:32 18.44750 -21.90292 36956 ft 479 kts 24°
2026-04-23 14:32 18.47537 -21.88561 36922 ft 464 kts 24°
2026-04-23 14:32 18.50269 -21.86855 36890 ft 452 kts 24°
2026-04-23 14:33 18.55724 -21.83478 36851 ft 458 kts 24°
2026-04-23 14:33 18.61262 -21.80056 36878 ft 465 kts 24°
2026-04-23 14:34 18.66876 -21.76580 36908 ft 471 kts 24°
2026-04-23 14:34 18.72557 -21.73057 36951 ft 476 kts 24°
2026-04-23 14:35 18.78322 -21.69482 36980 ft 483 kts 24°
2026-04-23 14:35 18.84113 -21.65886 37009 ft 488 kts 24°
2026-04-23 14:36 18.90012 -21.62220 37038 ft 494 kts 24°
2026-04-23 14:36 18.95973 -21.58513 37066 ft 500 kts 24°
2026-04-23 14:37 19.02011 -21.54755 37064 ft 506 kts 24°
2026-04-23 14:37 19.08094 -21.50962 37063 ft 508 kts 24°
2026-04-23 14:38 19.14191 -21.47154 37060 ft 509 kts 24°
2026-04-23 14:38 19.20300 -21.43337 37062 ft 510 kts 24°
2026-04-23 14:39 19.26405 -21.39519 37066 ft 510 kts 24°
2026-04-23 14:39 19.32489 -21.35711 37066 ft 511 kts 24°
2026-04-23 14:40 19.38610 -21.31876 37062 ft 511 kts 24°
2026-04-23 14:40 19.44741 -21.28031 37065 ft 512 kts 24°
2026-04-23 14:41 19.50869 -21.24185 37064 ft 512 kts 24°
2026-04-23 14:41 19.57002 -21.20332 37066 ft 512 kts 24°
2026-04-23 14:42 19.63100 -21.16498 37066 ft 513 kts 24°
2026-04-23 14:42 19.69238 -21.12636 37066 ft 513 kts 24°
2026-04-23 14:43 19.75383 -21.08765 37060 ft 514 kts 24°
2026-04-23 14:43 19.81538 -21.04884 37063 ft 514 kts 24°
2026-04-23 14:44 19.87690 -21.01002 37062 ft 514 kts 24°
2026-04-23 14:44 19.93847 -20.97113 37064 ft 515 kts 24°
2026-04-23 14:45 20.00005 -20.93220 37055 ft 515 kts 24°
2026-04-23 14:45 20.06176 -20.89315 37065 ft 515 kts 24°
2026-04-23 14:46 20.12340 -20.85411 37066 ft 516 kts 24°
2026-04-23 14:46 20.18514 -20.81497 37067 ft 516 kts 24°
2026-04-23 14:47 20.24649 -20.77604 37065 ft 517 kts 24°
2026-04-23 14:47 20.30858 -20.73660 37063 ft 517 kts 24°
2026-04-23 14:48 20.37002 -20.69754 37066 ft 517 kts 24°
2026-04-23 14:48 20.43171 -20.65815 37073 ft 517 kts 24°
2026-04-23 14:49 20.49345 -20.61864 37069 ft 517 kts 24°
2026-04-23 14:49 20.55525 -20.57907 37068 ft 518 kts 24°
2026-04-23 14:50 20.61690 -20.53957 37065 ft 517 kts 24°
2026-04-23 14:50 20.67861 -20.50000 37064 ft 517 kts 24°
2026-04-23 14:51 20.74037 -20.46034 37063 ft 517 kts 24°
2026-04-23 14:51 20.80170 -20.42093 37066 ft 517 kts 24°
2026-04-23 14:52 20.86345 -20.38121 37065 ft 517 kts 24°
2026-04-23 14:52 20.91477 -20.34817 37064 ft 517 kts 24°
2026-04-23 14:53 20.97645 -20.30842 37059 ft 517 kts 24°
2026-04-23 14:53 21.03815 -20.26863 37065 ft 517 kts 24°
2026-04-23 14:54 21.09975 -20.22885 37068 ft 517 kts 24°
2026-04-23 14:54 21.16133 -20.18905 37062 ft 517 kts 24°
2026-04-23 14:55 21.22291 -20.14922 37060 ft 517 kts 24°
2026-04-23 14:55 21.28447 -20.10935 37063 ft 517 kts 24°
2026-04-23 14:56 21.34570 -20.06966 37071 ft 517 kts 24°
2026-04-23 14:56 21.40718 -20.02978 37067 ft 516 kts 24°
2026-04-23 14:57 21.46872 -19.98980 37071 ft 516 kts 24°
2026-04-23 14:57 21.53023 -19.94982 37072 ft 516 kts 24°
2026-04-23 14:58 21.59165 -19.90984 37069 ft 516 kts 24°
2026-04-23 14:58 21.65302 -19.86987 37067 ft 515 kts 24°
2026-04-23 14:59 21.71436 -19.82987 37075 ft 516 kts 24°
2026-04-23 14:59 21.77575 -19.78980 37069 ft 516 kts 24°
2026-04-23 15:00 21.83711 -19.74971 37067 ft 516 kts 24°
2026-04-23 15:00 21.89810 -19.70981 37074 ft 516 kts 24°
2026-04-23 15:01 21.95943 -19.66965 37067 ft 516 kts 24°
2026-04-23 15:01 22.02074 -19.62947 37070 ft 516 kts 24°
2026-04-23 15:02 22.08215 -19.58918 37071 ft 516 kts 24°
2026-04-23 15:02 22.14347 -19.54893 37068 ft 516 kts 24°
2026-04-23 15:03 22.20476 -19.50868 37066 ft 516 kts 24°
2026-04-23 15:03 22.26605 -19.46838 37072 ft 516 kts 24°
2026-04-23 15:04 22.32735 -19.42803 37076 ft 516 kts 24°
2026-04-23 15:04 22.38871 -19.38759 37073 ft 515 kts 24°
2026-04-23 15:05 22.44985 -19.34726 37073 ft 515 kts 24°
2026-04-23 15:05 22.51108 -19.30683 37072 ft 515 kts 24°
2026-04-23 15:06 22.57187 -19.26665 37071 ft 515 kts 24°
2026-04-23 15:06 22.63296 -19.22623 37071 ft 514 kts 25°
2026-04-23 15:07 22.69402 -19.18579 37071 ft 514 kts 25°
2026-04-23 15:07 22.75507 -19.14530 37072 ft 514 kts 25°
2026-04-23 15:08 22.81603 -19.10483 37074 ft 514 kts 25°
2026-04-23 15:09 22.90747 -19.04405 37079 ft 513 kts 25°
2026-04-23 15:09 22.96798 -19.00378 37066 ft 513 kts 25°
2026-04-23 15:10 23.01899 -18.96979 37067 ft 513 kts 25°
2026-04-23 15:10 23.08975 -18.92260 37064 ft 513 kts 25°
2026-04-23 15:11 23.15057 -18.88199 37073 ft 513 kts 25°
2026-04-23 15:11 23.21139 -18.84133 37071 ft 513 kts 25°
2026-04-23 15:12 23.27219 -18.80066 37069 ft 513 kts 25°
2026-04-23 15:12 23.33300 -18.75991 37072 ft 512 kts 25°
2026-04-23 15:13 23.39394 -18.71908 37073 ft 518 kts 25°
2026-04-23 15:13 23.45567 -18.67764 37079 ft 524 kts 25°
2026-04-23 15:14 23.51809 -18.63567 37079 ft 529 kts 25°
2026-04-23 15:14 23.58111 -18.59324 37079 ft 535 kts 26°
2026-04-23 15:15 23.64467 -18.55040 37079 ft 539 kts 26°
2026-04-23 15:15 23.70881 -18.50712 37075 ft 544 kts 26°
2026-04-23 15:16 23.77288 -18.46383 37076 ft 547 kts 26°
2026-04-23 15:16 23.83757 -18.42009 37075 ft 547 kts 26°
2026-04-23 15:17 23.90230 -18.37627 37081 ft 547 kts 26°
2026-04-23 15:17 23.96691 -18.33248 37074 ft 546 kts 26°
2026-04-23 15:18 24.03155 -18.28864 37077 ft 546 kts 26°
2026-04-23 15:18 24.09608 -18.24480 37071 ft 546 kts 26°
2026-04-23 15:19 24.16028 -18.20114 37072 ft 546 kts 26°
2026-04-23 15:19 24.22475 -18.15724 37074 ft 545 kts 26°
2026-04-23 15:20 24.27879 -18.12041 37069 ft 546 kts 26°
2026-04-23 15:20 24.35365 -18.06932 37073 ft 545 kts 26°
2026-04-23 15:21 24.41814 -18.02526 37073 ft 545 kts 26°
2026-04-23 15:21 24.48251 -17.98121 37069 ft 545 kts 26°
2026-04-23 15:22 24.54656 -17.93733 37072 ft 545 kts 26°
2026-04-23 15:22 24.61087 -17.89323 37074 ft 545 kts 26°
2026-04-23 15:23 24.67522 -17.84904 37070 ft 545 kts 26°
2026-04-23 15:23 24.73946 -17.80487 37069 ft 544 kts 26°
2026-04-23 15:24 24.80368 -17.76066 37072 ft 544 kts 26°
2026-04-23 15:24 24.86787 -17.71642 37069 ft 544 kts 26°
2026-04-23 15:25 24.93211 -17.67208 37073 ft 544 kts 26°
2026-04-23 15:25 24.99617 -17.62782 37070 ft 544 kts 26°
2026-04-23 15:26 25.05994 -17.58367 37072 ft 544 kts 26°
2026-04-23 15:26 25.12400 -17.53922 37068 ft 544 kts 26°
2026-04-23 15:27 25.18815 -17.49467 37067 ft 544 kts 26°
2026-04-23 15:27 25.25231 -17.45008 37067 ft 544 kts 26°
2026-04-23 15:28 25.31633 -17.40550 37066 ft 544 kts 26°
2026-04-23 15:28 25.38045 -17.36080 37073 ft 544 kts 26°
2026-04-23 15:29 25.44446 -17.31613 37065 ft 544 kts 26°
2026-04-23 15:29 25.50816 -17.27162 37070 ft 545 kts 26°
2026-04-23 15:30 25.57217 -17.22683 37068 ft 544 kts 26°
2026-04-23 15:30 25.63630 -17.18191 37067 ft 545 kts 26°
2026-04-23 15:31 25.70031 -17.13700 37069 ft 545 kts 26°
2026-04-23 15:31 25.76444 -17.09195 37071 ft 545 kts 26°
2026-04-23 15:32 25.82847 -17.04692 37075 ft 545 kts 26°
2026-04-23 15:32 25.89215 -17.00207 37066 ft 545 kts 26°
2026-04-23 15:33 25.95626 -16.95686 37070 ft 545 kts 26°
2026-04-23 15:33 26.02027 -16.91167 37068 ft 545 kts 26°
2026-04-23 15:34 26.08441 -16.86632 37074 ft 546 kts 26°
2026-04-23 15:34 26.14852 -16.82093 37070 ft 545 kts 26°
2026-04-23 15:35 26.21220 -16.77579 37069 ft 545 kts 26°
2026-04-23 15:35 26.27634 -16.73040 37068 ft 545 kts 26°
2026-04-23 15:36 26.34048 -16.68500 37067 ft 545 kts 26°
2026-04-23 15:36 26.40458 -16.63950 37067 ft 545 kts 26°
2026-04-23 15:37 26.46857 -16.59402 37068 ft 545 kts 26°
2026-04-23 15:37 26.52180 -16.55616 37054 ft 545 kts 26°
2026-04-23 15:38 26.59616 -16.50318 37064 ft 545 kts 26°
2026-04-23 15:38 26.66016 -16.45752 37061 ft 545 kts 26°
2026-04-23 15:39 26.72403 -16.41190 37067 ft 545 kts 26°
2026-04-23 15:39 26.77755 -16.37361 37069 ft 545 kts 26°
2026-04-23 15:40 26.84093 -16.32822 37066 ft 545 kts 26°
2026-04-23 15:40 26.90479 -16.28243 37068 ft 544 kts 26°
2026-04-23 15:41 26.96856 -16.23656 37066 ft 544 kts 27°
2026-04-23 15:41 27.03227 -16.19061 37066 ft 544 kts 26°
2026-04-23 15:42 27.09562 -16.14492 37062 ft 543 kts 26°
2026-04-23 15:42 27.15913 -16.09904 37059 ft 543 kts 26°
2026-04-23 15:43 27.22277 -16.05298 37060 ft 542 kts 26°
2026-04-23 15:43 27.28575 -16.00735 37063 ft 542 kts 26°
2026-04-23 15:44 27.34905 -15.96143 37062 ft 541 kts 26°
2026-04-23 15:44 27.41237 -15.91543 37064 ft 541 kts 26°
2026-04-23 15:45 27.47551 -15.86949 37060 ft 540 kts 26°
2026-04-23 15:45 27.53878 -15.82340 37062 ft 540 kts 26°
2026-04-23 15:46 27.60177 -15.77745 37060 ft 539 kts 26°
2026-04-23 15:46 27.66436 -15.73172 37062 ft 539 kts 26°
2026-04-23 15:47 27.72728 -15.68569 37063 ft 538 kts 26°
2026-04-23 15:47 27.79006 -15.63973 37066 ft 538 kts 26°
2026-04-23 15:48 27.85285 -15.59367 37083 ft 537 kts 27°
2026-04-23 15:48 27.91563 -15.54756 37071 ft 538 kts 27°
2026-04-23 15:49 27.97844 -15.50135 37073 ft 538 kts 26°
2026-04-23 15:49 28.04111 -15.45517 37083 ft 538 kts 27°
2026-04-23 15:50 28.10351 -15.40913 37077 ft 538 kts 27°
2026-04-23 15:50 28.16612 -15.36257 37073 ft 538 kts 27°
2026-04-23 15:51 28.22862 -15.31604 37068 ft 538 kts 27°
2026-04-23 15:51 28.29117 -15.26949 37070 ft 537 kts 27°
2026-04-23 15:52 28.35366 -15.22290 37072 ft 537 kts 27°
2026-04-23 15:52 28.41601 -15.17633 37070 ft 537 kts 27°
2026-04-23 15:53 28.47801 -15.12996 37076 ft 536 kts 27°
2026-04-23 15:53 28.54039 -15.08325 37072 ft 536 kts 27°
2026-04-23 15:54 28.60273 -15.03649 37082 ft 536 kts 27°
2026-04-23 15:54 28.66502 -14.98970 37076 ft 536 kts 27°
2026-04-23 15:55 28.72684 -14.94321 37081 ft 535 kts 27°
2026-04-23 15:55 28.78901 -14.89638 37088 ft 535 kts 27°
2026-04-23 15:56 28.85102 -14.84960 37075 ft 534 kts 27°
2026-04-23 15:56 28.91309 -14.80270 37078 ft 534 kts 27°
2026-04-23 15:57 28.97513 -14.75576 37078 ft 534 kts 27°
2026-04-23 15:57 29.03675 -14.70908 37077 ft 534 kts 27°
2026-04-23 15:58 29.09873 -14.66204 37077 ft 534 kts 27°
2026-04-23 15:58 29.16056 -14.61506 37077 ft 533 kts 27°
2026-04-23 15:59 29.22241 -14.56800 37075 ft 533 kts 27°
2026-04-23 15:59 29.28412 -14.52097 37078 ft 533 kts 27°
2026-04-23 16:00 29.34549 -14.47413 37077 ft 533 kts 27°
2026-04-23 16:00 29.40725 -14.42692 37076 ft 533 kts 27°
2026-04-23 16:01 29.46888 -14.37974 37078 ft 533 kts 27°
2026-04-23 16:01 29.53033 -14.33263 37074 ft 532 kts 27°
2026-04-23 16:02 29.59189 -14.28536 37073 ft 532 kts 27°
2026-04-23 16:02 29.65346 -14.23802 37079 ft 532 kts 27°
2026-04-23 16:03 29.71515 -14.19051 37075 ft 532 kts 27°
2026-04-23 16:03 29.77654 -14.14315 37075 ft 530 kts 27°
2026-04-23 16:04 29.83762 -14.09600 37080 ft 533 kts 27°
2026-04-23 16:04 29.89931 -14.04828 37077 ft 534 kts 27°
2026-04-23 16:05 29.95056 -14.00857 37075 ft 533 kts 27°
2026-04-23 16:05 30.02248 -13.95278 37075 ft 533 kts 27°
2026-04-23 16:06 30.08401 -13.90496 37074 ft 533 kts 27°
2026-04-23 16:06 30.14555 -13.85707 37076 ft 533 kts 27°
2026-04-23 16:07 30.20675 -13.80936 37077 ft 534 kts 27°
2026-04-23 16:07 30.26831 -13.76130 37075 ft 534 kts 27°
2026-04-23 16:08 30.32996 -13.71310 37071 ft 534 kts 27°
2026-04-23 16:08 30.39159 -13.66484 37079 ft 534 kts 27°
2026-04-23 16:09 30.45285 -13.61679 37079 ft 535 kts 27°
2026-04-23 16:09 30.51465 -13.56887 37074 ft 532 kts 24°
2026-04-23 16:10 30.57943 -13.52863 37076 ft 526 kts 19°
2026-04-23 16:10 30.64476 -13.49010 37078 ft 527 kts 20°
2026-04-23 16:11 30.70995 -13.45061 37070 ft 528 kts 20°
2026-04-23 16:11 30.77469 -13.41116 37071 ft 529 kts 20°
2026-04-23 16:12 30.84021 -13.37119 37073 ft 529 kts 20°
2026-04-23 16:12 30.90505 -13.33159 37076 ft 529 kts 21°
2026-04-23 16:13 30.97037 -13.29162 37047 ft 530 kts 21°
2026-04-23 16:13 31.03583 -13.25151 36685 ft 532 kts 21°
2026-04-23 16:13 31.06859 -13.23140 36515 ft 532 kts 21°
2026-04-23 16:14 31.10135 -13.21128 36343 ft 532 kts 21°
2026-04-23 16:14 31.13420 -13.19108 36157 ft 533 kts 21°
2026-04-23 16:14 31.16699 -13.17090 36051 ft 532 kts 21°
2026-04-23 16:14 31.19983 -13.15069 36062 ft 532 kts 21°
2026-04-23 16:15 31.26539 -13.11030 36062 ft 533 kts 21°
2026-04-23 16:15 31.33063 -13.07005 36069 ft 533 kts 22°
2026-04-23 16:16 31.39632 -13.02945 36048 ft 533 kts 22°
2026-04-23 16:16 31.46199 -12.98879 36056 ft 534 kts 22°
2026-04-23 16:17 31.52785 -12.94797 36058 ft 535 kts 22°
2026-04-23 16:17 31.59328 -12.90733 36065 ft 535 kts 22°
2026-04-23 16:18 31.65914 -12.86636 36063 ft 535 kts 22°
2026-04-23 16:18 31.72504 -12.82530 36065 ft 536 kts 22°
2026-04-23 16:19 31.79089 -12.78421 36058 ft 536 kts 23°
2026-04-23 16:19 31.85676 -12.74304 36060 ft 536 kts 23°
2026-04-23 16:20 31.92262 -12.70180 36054 ft 536 kts 23°
2026-04-23 16:20 31.98852 -12.66048 36059 ft 536 kts 23°
2026-04-23 16:21 32.05404 -12.61932 36060 ft 537 kts 23°
2026-04-23 16:21 32.12002 -12.57781 36061 ft 537 kts 24°
2026-04-23 16:22 32.18592 -12.53628 36058 ft 537 kts 24°
2026-04-23 16:22 32.25184 -12.49467 36061 ft 537 kts 24°
2026-04-23 16:23 32.31782 -12.45295 36067 ft 537 kts 24°
2026-04-23 16:23 32.38376 -12.41119 36064 ft 538 kts 24°
2026-04-23 16:24 32.44971 -12.36935 36067 ft 538 kts 24°
2026-04-23 16:24 32.51532 -12.32766 36064 ft 538 kts 25°
2026-04-23 16:25 32.58138 -12.28562 36058 ft 538 kts 25°
2026-04-23 16:25 32.64743 -12.24349 36055 ft 538 kts 25°
2026-04-23 16:26 32.71341 -12.20135 36069 ft 539 kts 25°
2026-04-23 16:26 32.77940 -12.15913 36058 ft 539 kts 25°
2026-04-23 16:27 32.84540 -12.11683 36072 ft 539 kts 25°
2026-04-23 16:27 32.91093 -12.07477 36073 ft 538 kts 25°
2026-04-23 16:28 32.97685 -12.03238 36055 ft 538 kts 25°
2026-04-23 16:28 33.04281 -11.98990 36055 ft 538 kts 25°
2026-04-23 16:29 33.10865 -11.94740 36065 ft 538 kts 26°
2026-04-23 16:29 33.16341 -11.91199 36050 ft 533 kts 26°
2026-04-23 16:30 33.22812 -11.87011 36053 ft 532 kts 26°
2026-04-23 16:30 33.29368 -11.82761 36042 ft 532 kts 26°
2026-04-23 16:31 33.35837 -11.78560 36045 ft 533 kts 26°
2026-04-23 16:31 33.42363 -11.74314 36055 ft 533 kts 26°
2026-04-23 16:32 33.48878 -11.70068 36053 ft 533 kts 26°
2026-04-23 16:32 33.55400 -11.65810 36060 ft 533 kts 26°
2026-04-23 16:33 33.61925 -11.61543 36053 ft 534 kts 27°
2026-04-23 16:33 33.68445 -11.57271 36064 ft 534 kts 27°
2026-04-23 16:34 33.74959 -11.52996 36063 ft 534 kts 27°
2026-04-23 16:34 33.81481 -11.48709 36061 ft 534 kts 27°
2026-04-23 16:35 33.87968 -11.44437 36053 ft 534 kts 27°
2026-04-23 16:35 33.94498 -11.40129 36060 ft 535 kts 27°
2026-04-23 16:36 34.01021 -11.35818 36058 ft 535 kts 27°
2026-04-23 16:36 34.07553 -11.31493 36061 ft 535 kts 27°
2026-04-23 16:37 34.14084 -11.27161 36054 ft 535 kts 27°
2026-04-23 16:37 34.20603 -11.22831 36053 ft 535 kts 27°
2026-04-23 16:38 34.27117 -11.18495 36053 ft 534 kts 28°
2026-04-23 16:38 34.33627 -11.14154 36053 ft 534 kts 28°
2026-04-23 16:39 34.40090 -11.09836 36055 ft 534 kts 28°
2026-04-23 16:39 34.46595 -11.05484 36055 ft 534 kts 28°
2026-04-23 16:40 34.53104 -11.01121 36052 ft 534 kts 28°
2026-04-23 16:40 34.59603 -10.96756 36054 ft 534 kts 28°
2026-04-23 16:41 34.66102 -10.92383 36048 ft 534 kts 28°
2026-04-23 16:41 34.72607 -10.87999 36050 ft 534 kts 28°
2026-04-23 16:42 34.79108 -10.83609 36054 ft 534 kts 28°
2026-04-23 16:42 34.85594 -10.79222 36050 ft 534 kts 29°
2026-04-23 16:43 34.92082 -10.74825 36054 ft 533 kts 29°
2026-04-23 16:43 34.98568 -10.70421 36053 ft 533 kts 29°
2026-04-23 16:44 35.05008 -10.66041 36049 ft 533 kts 29°
2026-04-23 16:44 35.11490 -10.61624 36049 ft 533 kts 29°
2026-04-23 16:45 35.17974 -10.57197 36051 ft 533 kts 29°
2026-04-23 16:45 35.24446 -10.52770 36051 ft 534 kts 29°
2026-04-23 16:46 35.30933 -10.48326 36048 ft 534 kts 29°
2026-04-23 16:46 35.37408 -10.43881 36048 ft 533 kts 30°
2026-04-23 16:47 35.43888 -10.39425 36047 ft 533 kts 30°
2026-04-23 16:47 35.50321 -10.34992 36048 ft 533 kts 30°
2026-04-23 16:48 35.56790 -10.30527 36048 ft 533 kts 30°
2026-04-23 16:48 35.63252 -10.26057 36046 ft 533 kts 30°
2026-04-23 16:49 35.69715 -10.21579 36046 ft 533 kts 30°
2026-04-23 16:49 35.76171 -10.17097 36045 ft 533 kts 30°
2026-04-23 16:50 35.82626 -10.12608 36048 ft 533 kts 30°
2026-04-23 16:50 35.89080 -10.08111 36048 ft 533 kts 30°
2026-04-23 16:51 35.95531 -10.03607 36045 ft 533 kts 30°
2026-04-23 16:51 36.01979 -9.99102 36044 ft 532 kts 30°
2026-04-23 16:52 36.08432 -9.94595 36046 ft 532 kts 31°
2026-04-23 16:52 36.14877 -9.90081 36043 ft 532 kts 31°
2026-04-23 16:53 36.21319 -9.85560 36044 ft 532 kts 31°
2026-04-23 16:53 36.27762 -9.81030 36043 ft 532 kts 31°
2026-04-23 16:54 36.34165 -9.76520 36045 ft 532 kts 31°
2026-04-23 16:54 36.40605 -9.71975 36043 ft 532 kts 31°
2026-04-23 16:55 36.47041 -9.67423 36045 ft 532 kts 31°
2026-04-23 16:55 36.53483 -9.62860 36047 ft 532 kts 31°
2026-04-23 16:56 36.59912 -9.58295 36044 ft 532 kts 31°
2026-04-23 16:56 36.66339 -9.53724 36045 ft 532 kts 31°
2026-04-23 16:57 36.72764 -9.49146 36043 ft 532 kts 31°
2026-04-23 16:57 36.79190 -9.44557 36046 ft 531 kts 31°
2026-04-23 16:58 36.85562 -9.39998 36038 ft 531 kts 31°
2026-04-23 16:58 36.92019 -9.35370 36043 ft 531 kts 32°
2026-04-23 16:59 36.98382 -9.30800 36041 ft 531 kts 32°
2026-04-23 16:59 37.04786 -9.26191 36048 ft 530 kts 32°
2026-04-23 17:00 37.11187 -9.21575 36034 ft 530 kts 32°
2026-04-23 17:00 37.17567 -9.16966 36033 ft 529 kts 32°
2026-04-23 17:01 37.23948 -9.12347 36030 ft 529 kts 32°
2026-04-23 17:01 37.30316 -9.07728 36034 ft 528 kts 32°
2026-04-23 17:02 37.36642 -9.03131 36032 ft 528 kts 32°
2026-04-23 17:02 37.42997 -8.98503 36035 ft 528 kts 32°
2026-04-23 17:03 37.49348 -8.93869 36033 ft 528 kts 32°
2026-04-23 17:03 37.55717 -8.89213 36028 ft 528 kts 32°
2026-04-23 17:04 37.62373 -8.85418 35214 ft 526 kts
2026-04-23 17:04 37.65955 -8.85315 34893 ft 507 kts 351°
2026-04-23 17:04 37.69257 -8.86503 34713 ft 483 kts 335°
2026-04-23 17:05 37.72203 -8.88315 34645 ft 461 kts 330°
2026-04-23 17:05 37.75016 -8.90239 33898 ft 460 kts 329°
2026-04-23 17:05 37.77766 -8.92249 33298 ft 453 kts 327°
2026-04-23 17:05 37.80512 -8.94165 32668 ft 450 kts 332°
2026-04-23 17:06 37.83372 -8.95743 32060 ft 446 kts 337°
2026-04-23 17:06 37.86275 -8.97063 31479 ft 442 kts 339°
2026-04-23 17:06 37.89155 -8.98259 30899 ft 438 kts 340°
2026-04-23 17:06 37.92049 -8.99433 30318 ft 435 kts 340°
2026-04-23 17:07 37.94953 -9.00614 29697 ft 432 kts 340°
2026-04-23 17:07 37.97757 -9.01760 29171 ft 426 kts 340°
2026-04-23 17:07 38.00663 -9.02450 28554 ft 426 kts
2026-04-23 17:07 38.03532 -9.01760 28127 ft 416 kts 25°
2026-04-23 17:08 38.05920 -8.99831 27545 ft 404 kts 49°
2026-04-23 17:08 38.07809 -8.97254 27091 ft 396 kts 52°
2026-04-23 17:08 38.09781 -8.94814 26530 ft 396 kts 44°
2026-04-23 17:08 38.11942 -8.92662 26029 ft 393 kts 39°
2026-04-23 17:09 38.14190 -8.90693 25493 ft 392 kts 37°
2026-04-23 17:09 38.16458 -8.88794 24981 ft 389 kts 36°
2026-04-23 17:09 38.18714 -8.86915 24470 ft 387 kts 36°
2026-04-23 17:09 38.20945 -8.85049 23950 ft 385 kts 36°
2026-04-23 17:10 38.23185 -8.83168 23411 ft 383 kts 36°
2026-04-23 17:10 38.25393 -8.81310 22940 ft 377 kts 36°
2026-04-23 17:10 38.27570 -8.79473 22414 ft 374 kts 36°
2026-04-23 17:10 38.29724 -8.77654 21941 ft 369 kts 36°
2026-04-23 17:11 38.31858 -8.75848 21433 ft 367 kts 36°
2026-04-23 17:11 38.33972 -8.74060 20957 ft 363 kts 36°
2026-04-23 17:11 38.36045 -8.72306 20497 ft 360 kts 36°
2026-04-23 17:11 38.38124 -8.70545 20013 ft 358 kts 36°
2026-04-23 17:12 38.39518 -8.69364 19696 ft 356 kts 36°
2026-04-23 17:12 38.42244 -8.67052 19064 ft 353 kts 36°
2026-04-23 17:12 38.44287 -8.65320 18589 ft 352 kts 36°
2026-04-23 17:12 38.46323 -8.63592 18088 ft 350 kts 36°
2026-04-23 17:13 38.48337 -8.61882 17666 ft 345 kts 36°
2026-04-23 17:13 38.50328 -8.60191 17190 ft 342 kts 36°
2026-04-23 17:13 38.52299 -8.58513 16748 ft 339 kts 37°
2026-04-23 17:13 38.54275 -8.56897 16270 ft 337 kts 29°
2026-04-23 17:14 38.55741 -8.56231 15945 ft 338 kts 13°
2026-04-23 17:14 38.58056 -8.55994 15583 ft 332 kts 358°
2026-04-23 17:14 38.60361 -8.56152 15135 ft 331 kts 356°
2026-04-23 17:14 38.62654 -8.56301 14680 ft 330 kts 358°
2026-04-23 17:15 38.64947 -8.56361 14242 ft 329 kts 360°
2026-04-23 17:15 38.67241 -8.56371 13804 ft 328 kts
2026-04-23 17:15 38.69524 -8.56355 13346 ft 326 kts
2026-04-23 17:15 38.71784 -8.56341 12939 ft 323 kts
2026-04-23 17:16 38.74029 -8.56329 12494 ft 321 kts
2026-04-23 17:16 38.76261 -8.56318 12074 ft 320 kts
2026-04-23 17:16 38.78477 -8.56301 11642 ft 318 kts
2026-04-23 17:16 38.80661 -8.56286 11241 ft 316 kts
2026-04-23 17:17 38.82864 -8.56275 10797 ft 317 kts
2026-04-23 17:17 38.85066 -8.56262 10398 ft 315 kts
2026-04-23 17:17 38.87257 -8.56250 9960 ft 315 kts
2026-04-23 17:17 38.89443 -8.56238 9540 ft 313 kts
2026-04-23 17:18 38.93759 -8.56258 8714 ft 307 kts 357°
2026-04-23 17:18 38.95886 -8.56335 8360 ft 304 kts 359°
2026-04-23 17:18 38.97972 -8.56377 8170 ft 293 kts 359°
2026-04-23 17:19 38.99908 -8.56899 8003 ft 279 kts 330°
2026-04-23 17:19 39.01269 -8.58494 7910 ft 258 kts 296°
2026-04-23 17:19 39.01691 -8.60620 7818 ft 241 kts 261°
2026-04-23 17:19 39.01141 -8.62572 7583 ft 238 kts 232°
2026-04-23 17:20 39.00201 -8.64319 7368 ft 240 kts 244°
2026-04-23 17:20 39.00719 -8.68450 6962 ft 251 kts 312°
2026-04-23 17:21 39.04005 -8.69735 6962 ft 259 kts
2026-04-23 17:21 39.05816 -8.69754 7002 ft 261 kts 359°
2026-04-23 17:21 39.09465 -8.69801 6994 ft 262 kts 359°
2026-04-23 17:22 39.11284 -8.69857 6984 ft 262 kts 352°
2026-04-23 17:22 39.13881 -8.72561 6921 ft 247 kts 286°
2026-04-23 17:23 39.14797 -8.76803 6990 ft 247 kts 286°
2026-04-23 17:23 39.15402 -8.78881 6992 ft 248 kts 286°
2026-04-23 17:23 39.16986 -8.82812 7004 ft 249 kts 302°
2026-04-23 17:24 39.17977 -8.84599 7057 ft 238 kts 303°
2026-04-23 17:24 39.18907 -8.86277 7007 ft 221 kts 302°
2026-04-23 17:24 39.20570 -8.89352 6960 ft 203 kts 302°
2026-04-23 17:25 39.21551 -8.92685 6905 ft 199 kts 279°
2026-04-23 17:25 39.21816 -8.94436 6900 ft 199 kts 278°
2026-04-23 17:26 39.22345 -8.97944 6921 ft 199 kts 278°
2026-04-23 17:26 39.22896 -9.01460 6949 ft 200 kts 279°
2026-04-23 17:27 39.23042 -9.04940 6930 ft 196 kts 258°
2026-04-23 17:27 39.22793 -9.06663 6935 ft 195 kts 257°
2026-04-23 17:27 39.22522 -9.08376 6934 ft 195 kts 257°
2026-04-23 17:27 39.22252 -9.10092 6937 ft 195 kts 257°
2026-04-23 17:28 39.21986 -9.11819 6844 ft 200 kts 257°
2026-04-23 17:28 39.21610 -9.13512 6715 ft 193 kts 239°
2026-04-23 17:28 39.20656 -9.14638 6645 ft 188 kts 204°
2026-04-23 17:28 39.19366 -9.14786 6606 ft 191 kts 168°
2026-04-23 17:29 39.18183 -9.13992 6609 ft 194 kts 150°
2026-04-23 17:29 39.17077 -9.12984 6596 ft 196 kts 148°
2026-04-23 17:29 39.14873 -9.10885 6346 ft 196 kts 147°
2026-04-23 17:30 39.13782 -9.09847 6267 ft 193 kts 147°
2026-04-23 17:30 39.11610 -9.07816 6101 ft 195 kts 147°
2026-04-23 17:30 39.10522 -9.06793 6010 ft 192 kts 147°
2026-04-23 17:31 39.09447 -9.05784 5946 ft 191 kts 148°
2026-04-23 17:31 39.08367 -9.04768 5861 ft 192 kts 148°
2026-04-23 17:31 39.07295 -9.03757 5766 ft 190 kts 148°
2026-04-23 17:31 39.06224 -9.02748 5683 ft 191 kts 147°
2026-04-23 17:32 39.05161 -9.01741 5589 ft 189 kts 147°
2026-04-23 17:32 39.04077 -9.00809 5490 ft 186 kts 163°
2026-04-23 17:32 39.02788 -9.00755 5233 ft 192 kts 188°
2026-04-23 17:32 39.01486 -9.01028 4972 ft 189 kts 199°
2026-04-23 17:33 39.00293 -9.01720 4702 ft 185 kts 202°
2026-04-23 17:33 38.99106 -9.02304 4490 ft 180 kts 199°
2026-04-23 17:33 38.97962 -9.02889 4264 ft 175 kts 204°
2026-04-23 17:33 38.96848 -9.03520 4063 ft 173 kts 204°
2026-04-23 17:34 38.95754 -9.04106 3840 ft 167 kts 203°
2026-04-23 17:34 38.94691 -9.04671 3634 ft 162 kts 204°
2026-04-23 17:34 38.92707 -9.05745 3211 ft 152 kts 206°
2026-04-23 17:35 38.91723 -9.06274 3010 ft 153 kts 207°
2026-04-23 17:35 38.89788 -9.07313 2609 ft 146 kts 209°
2026-04-23 17:35 38.88880 -9.07809 2388 ft 139 kts 211°
2026-04-23 17:36 38.87999 -9.08292 2203 ft 138 kts 212°
2026-04-23 17:36 38.87110 -9.08764 2148 ft 136 kts 212°
2026-04-23 17:36 38.86245 -9.09220 1894 ft 136 kts 211°
2026-04-23 17:36 38.85404 -9.09679 1688 ft 128 kts 214°
2026-04-23 17:37 38.84597 -9.10118 1483 ft 128 kts 212°
2026-04-23 17:37 38.83764 -9.10564 1341 ft 131 kts 212°
2026-04-23 17:37 38.82078 -9.11470 980 ft 133 kts 213°
2026-04-23 17:38 38.81237 -9.11935 821 ft 130 kts 212°
2026-04-23 17:38 38.80378 -9.12391 639 ft 132 kts 214°
2026-04-23 17:38 38.79534 -9.12835 465 ft 132 kts 210°
2026-04-23 17:38 38.78724 -9.13296 347 ft 117 kts 203°
2026-04-23 17:39 38.78211 -9.13566 356 ft 41 kts 202°
2026-04-23 17:39 38.77968 -9.13691 348 ft 35 kts 197°
2026-04-23 17:39 38.77736 -9.13764 348 ft 33 kts 188°
2026-04-23 17:39 38.77537 -9.13760 345 ft 25 kts 175°
2026-04-23 17:40 38.77495 -9.13758 350 ft 0 kts 180°
2026-04-23 17:42 38.77494 -9.13758 351 ft 2 kts 182°
2026-04-23 17:43 38.77454 -9.13758 348 ft 12 kts 181°
2026-04-23 17:43 38.77340 -9.13787 350 ft 19 kts 208°
2026-04-23 17:43 38.77308 -9.13796 349 ft 8 kts 180°
2026-04-23 17:43 38.77260 -9.13734 346 ft 12 kts 93°
2026-04-23 17:44 38.77263 -9.13710 354 ft 0 kts 83°
2026-04-23 17:45 38.77263 -9.13708 354 ft 1 kts 83°
2026-04-23 17:45 38.77271 -9.13646 346 ft 6 kts 78°
2026-04-23 17:45 38.77283 -9.13578 349 ft 10 kts 78°
2026-04-23 17:46 38.77291 -9.13534 346 ft 3 kts 72°
2026-04-23 17:46 38.77299 -9.13486 348 ft 7 kts 79°
2026-04-23 17:46 38.77316 -9.13411 347 ft 10 kts 76°
2026-04-23 17:47 38.77329 -9.13313 349 ft 12 kts 72°
2026-04-23 17:47 38.77373 -9.13268 347 ft 6 kts
2026-04-23 17:47 38.77478 -9.13291 346 ft 10 kts 346°
2026-04-23 17:48 38.77562 -9.13312 346 ft 14 kts 350°
2026-04-23 17:48 38.77665 -9.13326 346 ft 16 kts 356°
2026-04-23 17:48 38.77690 -9.13329 346 ft 1 kts 355°
2026-04-23 17:48 38.77691 -9.13329 346 ft 0 kts 356°
2026-04-23 17:49 38.77692 -9.13329 346 ft 0 kts 358°
2026-04-23 17:49 38.77693 -9.13329 346 ft 1 kts 359°
2026-04-23 17:50 38.77723 -9.13318 351 ft 7 kts 34°
2026-04-23 17:50 38.77755 -9.13157 349 ft 12 kts 83°
2026-04-23 17:50 38.77764 -9.13103 346 ft 1 kts 65°
2026-04-23 17:51 38.77770 -9.13080 353 ft 5 kts 72°
2026-04-23 17:51 38.77788 -9.13046 346 ft 4 kts 41°
2026-04-23 17:51 38.77885 -9.13041 350 ft 11 kts 343°
2026-04-23 17:52 38.77993 -9.13062 346 ft 19 kts
2026-04-23 17:52 38.78071 -9.13117 346 ft 0 kts 301°